Albacete, Spain

8:54 AM CEST on August 21, 2017 (GMT +0200)
Albacete Air Base

Weather History for LEAB - November, 2013

Change the Weather History Date:

Saturday, November 16, 2013

  Actual Average Record
Temperature  
Mean Temperature 36 °F -  
Max Temperature 47 °F - - ()
Min Temperature 24 °F - - ()
Degree Days  
Heating Degree Days 30    
Moisture  
Dew Point 26 °F    
Average Humidity 76    
Maximum Humidity 93    
Minimum Humidity 49    
Precipitation  
Precipitation 0.00 in 0.04 in - ()
Sea Level Pressure  
Sea Level Pressure 30.03 in    
Wind  
Wind Speed 4 mph ()    
Max Wind Speed 9 mph    
Max Gust Speed -    
Visibility 7.9 miles    
Events      
T = Trace of Precipitation, MM = Missing Value Source: Averaged Metar Reports

Daily Weather History Graph

Daily Weather History Graph

Search for Another Location

Airport or City:

Trip Planner

Search our weather history database for the weather conditions in past years. The results will help you decide how hot, cold, wet, or windy it might be!

Date:

Astronomy

Nov. 16, 2013 Rise Set
Actual Time 7:51 AM CET 5:52 PM CET
Civil Twilight 7:22 AM CET 6:21 PM CET
Nautical Twilight 6:50 AM CET 6:53 PM CET
Astronomical Twilight 6:18 AM CET 7:25 PM CET
Moon 5:17 PM CET (11/16) 6:33 AM CET (11/16)
Length of Visible Light 10h 58m
Length of Day
10h 01m
Waxing Gibbous, 99% of the Moon is Illuminated
Nov 16
Waxing Gibbous
Nov 17
Full
Nov 25
Last Quarter
Dec 3
New
Dec 9
First Quarter

Hourly Weather History & Observations

Time (CET) Temp. Windchill Dew Point Humidity Pressure Visibility Wind Dir Wind Speed Gust Speed Precip Events Conditions
12:00 AM 26.6 °F 21.2 °F 23.0 °F 86% 30.04 in - SSW 4.6 mph - N/A   Clear
1:00 AM 29 °F - 26 °F 86% 30.16 in 12 mi WSW 3.5 mph - -  
1:00 AM 26.6 °F 22.6 °F 23.0 °F 86% 30.04 in - WSW 3.5 mph - N/A   Clear
2:00 AM 26.6 °F 21.2 °F 23.0 °F 86% 30.04 in - West 4.6 mph - N/A   Clear
3:00 AM 24.8 °F - 21.2 °F 86% 30.04 in - Calm Calm - N/A   Clear
4:00 AM 23.0 °F - 21.2 °F 93% 30.04 in - SSW 2.3 mph - N/A   Clear
5:00 AM 24.8 °F 19.1 °F 21.2 °F 86% 30.04 in - WSW 4.6 mph - N/A   Clear
6:00 AM 23.0 °F 17.0 °F 21.2 °F 93% 30.04 in - WSW 4.6 mph - N/A   Clear
7:00 AM 26 °F - 22 °F 78% 30.16 in 12 mi WSW 5.8 mph - -   Scattered Clouds
7:00 AM 24.8 °F 17.9 °F 21.2 °F 86% 30.01 in - WSW 5.8 mph - N/A   Clear
8:00 AM 24.8 °F - 23.0 °F 93% 30.04 in - Variable 1.2 mph - N/A   Clear
9:00 AM 28.4 °F 23.3 °F 23.0 °F 80% 30.04 in 6.2 mi NNW 4.6 mph - N/A   Scattered Clouds
10:00 AM 32.0 °F 25.6 °F 26.6 °F 80% 30.04 in 6.2 mi SW 6.9 mph - N/A   Scattered Clouds
11:00 AM 35.6 °F 28.6 °F 26.6 °F 70% 30.04 in 6.2 mi NW 9.2 mph - N/A   Partly Cloudy
12:00 PM 41.0 °F 37.1 °F 28.4 °F 61% 30.04 in 6.2 mi NW 5.8 mph - N/A   Partly Cloudy
1:00 PM 43 °F - 31 °F 53% 30.05 in 12 mi NNW 6.9 mph - -   Partly Cloudy
1:00 PM 42.8 °F 38.6 °F 28.4 °F 57% 30.01 in 6.2 mi NNW 6.9 mph - N/A   Partly Cloudy
2:00 PM 44.6 °F 40.7 °F 26.6 °F 49% 29.98 in 6.2 mi NNW 6.9 mph - N/A   Partly Cloudy
3:00 PM 46.4 °F 42.4 °F 28.4 °F 50% 29.98 in 6.2 mi North 8.1 mph - N/A   Scattered Clouds
4:00 PM 44.6 °F 39.7 °F 30.2 °F 57% 29.98 in 6.2 mi North 9.2 mph - N/A   Partly Cloudy
5:00 PM 44.6 °F 40.7 °F 30.2 °F 57% 29.98 in 6.2 mi North 6.9 mph - N/A   Partly Cloudy
6:00 PM 42.8 °F 40.1 °F 30.2 °F 61% 29.98 in 6.2 mi NNE 4.6 mph - N/A   Partly Cloudy
7:00 PM 39 °F - 35 °F 79% 30.06 in 12 mi North 3.5 mph - -   Scattered Clouds
7:00 PM 37.4 °F 34.9 °F 28.4 °F 70% 30.01 in - North 3.5 mph - N/A   Clear
8:00 PM 35.6 °F 31.7 °F 28.4 °F 75% 30.01 in - WNW 4.6 mph - N/A   Clear
9:00 PM 30.2 °F - 26.6 °F 86% 30.01 in - Variable 2.3 mph - N/A   Clear
10:00 PM 30.2 °F 24.3 °F 26.6 °F 86% 30.04 in - WSW 5.8 mph - N/A   Clear
11:00 PM 30.2 °F 26.7 °F 26.6 °F 86% 30.04 in - WSW 3.5 mph - N/A   Clear